Back to catalog

SL-14 DEB

AlivePO
NORAD 47087·DEBRIS·🇷🇺 Russia

Launched Aug 15, 1991 from Plesetsk Cosmodrome

Loading…

Next Passes (next 24 hours)

TLE

FreshSource: Space-Track

Epoch: Sep 11, 2026, 21:41 UTC

1 47087U 91056DM  26254.90398323  .00000129  00000-0  26717-3 0  9991
2 47087  82.5969  66.7081 0061519 166.2445 194.0376 13.24587858283065

Track SL-14 DEB in real time with AllMySat

Download on the App Store